Weather History for Crestview, FL

Change the Weather History Date:

Monday, March 4, 2013

  Actual Average Record
Temperature  
Mean Temperature 44 °F -  
Max Temperature 61 °F - - ()
Min Temperature 27 °F - - ()
Degree Days  
Heating Degree Days 21    
Moisture  
Dew Point 36 °F    
Average Humidity 66    
Maximum Humidity 88    
Minimum Humidity 25    
Precipitation  
Precipitation 0.00 in - - ()
Sea Level Pressure  
Sea Level Pressure 30.13 in    
Wind  
Wind Speed 4 mph (SSE)    
Max Wind Speed 14 mph    
Max Gust Speed -    
Visibility 10 miles    
Events      
T = Trace of Precipitation, MM = Missing Value Source: NWS Daily Summary

Daily Weather History Graph

Daily Weather History Graph

Search for Another Location

Airport:

Trip Planner

Search our weather history database for the weather conditions in past years. The results will help you decide how hot, cold, wet, or windy it might be!

Date:

Astronomy

Mar. 04, 2013 Rise Set
Actual Time 6:08 AM CST 5:47 PM CST
Civil Twilight 5:44 AM CST 6:11 PM CST
Nautical Twilight 5:16 AM CST 6:39 PM CST
Astronomical Twilight 4:48 AM CST 7:07 PM CST
Moon 12:01 AM CST (3/4) 10:45 AM CST (3/4)
Length of Visible Light 12h 26m
Length of Day
11h 38m
Waning Gibbous, 52% of the Moon is Illuminated
Mar 4
Waning Gibbous
Mar 4
Last Quarter
Mar 11
New
Mar 19
First Quarter
Mar 27
Full

Hourly Weather History & Observations

Time (CST) Temp. Dew Point Humidity Pressure Visibility Wind Dir Wind Speed Gust Speed Precip Events Conditions
12:58 AM 30.7 °F 25.3 °F 80% 30.17 in 10.0 mi Calm Calm - N/A   Clear
1:58 AM 28.8 °F 25.0 °F 86% 30.15 in 10.0 mi Calm Calm - N/A   Clear
2:58 AM 28.6 °F 25.3 °F 88% 30.15 in 10.0 mi Calm Calm - N/A   Clear
3:58 AM 28.4 °F 24.8 °F 86% 30.14 in 10.0 mi Calm Calm - N/A   Clear
4:58 AM 28.0 °F 24.8 °F 88% 30.15 in 10.0 mi Calm Calm - N/A   Clear
5:58 AM 27.7 °F 24.6 °F 88% 30.17 in 10.0 mi Calm Calm - N/A   Clear
6:58 AM 31.6 °F 26.8 °F 82% 30.18 in 10.0 mi Calm Calm - N/A   Clear
7:58 AM 45.7 °F 24.6 °F 44% 30.21 in 10.0 mi Calm Calm - N/A   Clear
8:55 AM 53.1 °F 21.4 °F 29% 30.21 in 10.0 mi SSE 3.5 mph - N/A   Partly Cloudy
9:55 AM 56.7 °F 20.8 °F 25% 30.21 in 10.0 mi ESE 4.6 mph - N/A   Partly Cloudy
10:55 AM 58.6 °F 26.4 °F 29% 30.20 in 10.0 mi South 9.2 mph - N/A   Partly Cloudy
11:55 AM 59.7 °F 35.6 °F 41% 30.18 in 10.0 mi South 12.7 mph - N/A   Partly Cloudy
12:55 PM 60.8 °F 40.6 °F 47% 30.14 in 10.0 mi SSW 10.4 mph - N/A   Partly Cloudy
1:55 PM 60.4 °F 42.4 °F 51% 30.13 in 10.0 mi SSE 13.8 mph - N/A   Scattered Clouds
2:55 PM 61.0 °F 44.4 °F 54% 30.11 in 10.0 mi SSE 13.8 mph - N/A   Mostly Cloudy
3:55 PM 59.4 °F 45.3 °F 60% 30.11 in 10.0 mi South 12.7 mph - N/A   Mostly Cloudy
4:55 PM 57.4 °F 45.5 °F 65% 30.12 in 10.0 mi South 12.7 mph - N/A   Mostly Cloudy
5:55 PM 55.2 °F 45.3 °F 69% 30.11 in 10.0 mi SSE 8.1 mph - N/A   Mostly Cloudy
6:55 PM 53.4 °F 44.8 °F 73% 30.10 in 10.0 mi SE 5.8 mph - N/A   Scattered Clouds
7:55 PM 52.7 °F 44.8 °F 74% 30.08 in 10.0 mi SE 4.6 mph - N/A   Mostly Cloudy
8:55 PM 52.3 °F 45.5 °F 78% 30.07 in 10.0 mi ESE 5.8 mph - N/A   Mostly Cloudy
9:55 PM 52.7 °F 47.5 °F 82% 30.07 in 10.0 mi East 3.5 mph - N/A   Mostly Cloudy
10:55 PM 54.1 °F 48.2 °F 80% 30.05 in 10.0 mi South 4.6 mph - N/A   Mostly Cloudy
11:55 PM 58.8 °F 53.8 °F 83% 30.03 in 10.0 mi South 8.1 mph - N/A   Overcast